Location: Bednik
(45.3500°N, 16.3833°E)
Time: 21:49:10
(UTC+00:00)

ATLAS 5 CENTAUR R/B - Pass Details

Date: 08 August 2020
Orbit: 533 x 1125 km, 63.4° (Epoch: 19 September)

Event Time Altitude Azimuth Distance (km) Brightness Sun altitude
Rises 20:46:28 0° 307° (NW) 3,416 6.6 -21.8°
Reaches altitude 10° 20:49:32 10° 290° (WNW) 2,586 5.5 -22.1°
Maximum altitude 20:53:36 19° 248° (WSW) 2,142 4.4 -22.5°
Enters shadow 20:57:16 12° 212° (SSW) 2,652 4.5 -22.8°
